Time,TemperatureF,DewpointF,PressureIn,WindDirection,WindDirectionDegrees,WindSpeedMPH,WindSpeedGustMPH,Humidity,HourlyPrecipIn,Conditions,Clouds,dailyrainin,SoftwareType,DateUTC
2013-04-24 00:01:00,28.3,21.3,30.12,NW,315,0.0,0.7,75,0.00,,,0.00,WUHU216HW,2013-04-24 05:01:00,
2013-04-24 00:06:00,28.1,21.2,30.12,NW,315,0.7,1.1,75,0.00,,,0.00,WUHU216HW,2013-04-24 05:06:00,
2013-04-24 00:11:00,28.1,21.4,30.12,WNW,293,1.1,1.3,76,0.00,,,0.00,WUHU216HW,2013-04-24 05:11:00,
2013-04-24 00:16:00,28.3,21.6,30.12,WNW,293,0.0,1.3,76,0.00,,,0.00,WUHU216HW,2013-04-24 05:16:00,
2013-04-24 00:21:00,28.3,21.6,30.12,WNW,293,0.0,1.1,76,0.00,,,0.00,WUHU216HW,2013-04-24 05:21:00,
2013-04-24 00:26:00,28.1,21.4,30.12,WNW,293,0.0,0.7,76,0.00,,,0.00,WUHU216HW,2013-04-24 05:26:00,
2013-04-24 00:31:00,27.9,21.2,30.12,WNW,293,0.0,0.0,76,0.00,,,0.00,WUHU216HW,2013-04-24 05:31:00,
2013-04-24 00:36:00,27.5,20.9,30.12,WNW,293,0.0,0.0,76,0.00,,,0.00,WUHU216HW,2013-04-24 05:36:00,
2013-04-24 00:41:00,27.0,20.1,30.12,WNW,293,0.0,1.1,75,0.00,,,0.00,WUHU216HW,2013-04-24 05:41:00,
2013-04-24 00:46:00,27.2,20.3,30.12,WNW,293,0.0,1.1,75,0.00,,,0.00,WUHU216HW,2013-04-24 05:46:00,
2013-04-24 00:51:00,27.0,20.1,30.12,WNW,293,0.0,0.4,75,0.00,,,0.00,WUHU216HW,2013-04-24 05:51:00,
2013-04-24 00:56:00,26.8,19.9,30.12,WNW,293,0.0,0.9,75,0.00,,,0.00,WUHU216HW,2013-04-24 05:56:00,
2013-04-24 01:01:00,26.8,19.9,30.13,WNW,293,0.0,1.1,75,0.00,,,0.00,WUHU216HW,2013-04-24 06:01:00,
2013-04-24 01:06:00,26.5,19.5,30.12,WNW,293,0.4,1.1,75,0.00,,,0.00,WUHU216HW,2013-04-24 06:06:00,
2013-04-24 01:11:00,26.1,19.2,30.12,WNW,293,0.0,0.4,75,0.00,,,0.00,WUHU216HW,2013-04-24 06:11:00,
2013-04-24 01:16:00,25.7,18.8,30.12,WNW,293,0.0,0.4,75,0.00,,,0.00,WUHU216HW,2013-04-24 06:16:00,
2013-04-24 01:21:00,25.6,18.7,30.12,WNW,293,0.0,0.7,75,0.00,,,0.00,WUHU216HW,2013-04-24 06:21:00,
2013-04-24 01:26:00,25.2,18.4,30.12,WNW,293,0.2,0.9,75,0.00,,,0.00,WUHU216HW,2013-04-24 06:26:00,
2013-04-24 01:31:00,25.2,18.4,30.12,WNW,293,0.2,1.1,75,0.00,,,0.00,WUHU216HW,2013-04-24 06:31:00,
2013-04-24 01:36:00,25.0,18.5,30.12,WNW,293,0.0,1.1,76,0.00,,,0.00,WUHU216HW,2013-04-24 06:36:00,
2013-04-24 01:41:00,24.8,18.4,30.12,WNW,293,0.0,0.2,76,0.00,,,0.00,WUHU216HW,2013-04-24 06:41:00,
2013-04-24 01:46:00,24.7,18.2,30.12,WNW,293,0.0,0.0,76,0.00,,,0.00,WUHU216HW,2013-04-24 06:46:00,
2013-04-24 01:51:00,24.5,18.0,30.11,WNW,293,0.0,0.0,76,0.00,,,0.00,WUHU216HW,2013-04-24 06:51:00,
2013-04-24 01:56:00,24.1,17.7,30.11,WNW,293,0.0,0.7,76,0.00,,,0.00,WUHU216HW,2013-04-24 06:56:00,
2013-04-24 02:01:00,24.1,17.7,30.11,WNW,293,0.9,1.1,76,0.00,,,0.00,WUHU216HW,2013-04-24 07:01:00,
2013-04-24 02:06:00,24.3,17.8,30.11,WNW,293,0.0,1.1,76,0.00,,,0.00,WUHU216HW,2013-04-24 07:06:00,
2013-04-24 02:11:00,24.1,17.7,30.11,WNW,293,0.0,0.9,76,0.00,,,0.00,WUHU216HW,2013-04-24 07:11:00,
2013-04-24 02:16:00,23.9,17.5,30.11,WNW,293,0.0,0.0,76,0.00,,,0.00,WUHU216HW,2013-04-24 07:16:00,
2013-04-24 02:21:00,23.6,17.1,30.11,WNW,293,0.0,0.0,76,0.00,,,0.00,WUHU216HW,2013-04-24 07:21:00,
2013-04-24 02:26:00,23.4,16.9,30.10,WNW,293,0.0,0.0,76,0.00,,,0.00,WUHU216HW,2013-04-24 07:26:00,
2013-04-24 02:31:00,23.4,16.9,30.10,WNW,293,0.0,0.0,76,0.00,,,0.00,WUHU216HW,2013-04-24 07:31:00,
2013-04-24 02:36:00,23.6,17.1,30.10,WNW,293,0.0,0.0,76,0.00,,,0.00,WUHU216HW,2013-04-24 07:36:00,
2013-04-24 02:41:00,23.8,17.3,30.09,WNW,293,0.7,0.7,76,0.00,,,0.00,WUHU216HW,2013-04-24 07:41:00,
2013-04-24 02:46:00,24.3,16.8,30.09,WNW,293,1.3,1.8,73,0.00,,,0.00,WUHU216HW,2013-04-24 07:46:00,
2013-04-24 02:51:00,25.0,17.6,30.09,WNW,293,0.9,2.5,73,0.00,,,0.00,WUHU216HW,2013-04-24 07:51:00,
2013-04-24 02:56:00,25.2,18.0,30.09,WNW,293,0.0,2.5,74,0.00,,,0.00,WUHU216HW,2013-04-24 07:56:00,
2013-04-24 03:01:00,25.0,17.8,30.09,WNW,293,0.0,1.1,74,0.00,,,0.00,WUHU216HW,2013-04-24 08:01:00,
2013-04-24 03:06:00,24.8,18.0,30.09,WNW,293,0.0,1.1,75,0.00,,,0.00,WUHU216HW,2013-04-24 08:06:00,
2013-04-24 03:11:00,24.8,18.0,30.08,WNW,293,0.0,0.4,75,0.00,,,0.00,WUHU216HW,2013-04-24 08:11:00,
2013-04-24 03:16:00,24.7,17.8,30.08,WNW,293,0.0,0.4,75,0.00,,,0.00,WUHU216HW,2013-04-24 08:16:00,
2013-04-24 03:21:00,24.5,17.6,30.08,WSW,248,1.1,1.1,75,0.00,,,0.00,WUHU216HW,2013-04-24 08:21:00,
2013-04-24 03:26:00,24.7,17.8,30.09,WSW,248,0.0,1.3,75,0.00,,,0.00,WUHU216HW,2013-04-24 08:26:00,
2013-04-24 03:31:00,24.5,17.6,30.09,WSW,248,0.0,1.3,75,0.00,,,0.00,WUHU216HW,2013-04-24 08:31:00,
2013-04-24 03:36:00,24.1,17.3,30.09,WSW,248,0.4,0.7,75,0.00,,,0.00,WUHU216HW,2013-04-24 08:36:00,
2013-04-24 03:41:00,24.3,17.5,30.09,WSW,248,0.0,1.1,75,0.00,,,0.00,WUHU216HW,2013-04-24 08:41:00,
2013-04-24 03:46:00,24.5,17.6,30.09,WSW,248,1.1,1.6,75,0.00,,,0.00,WUHU216HW,2013-04-24 08:46:00,
2013-04-24 03:51:00,24.5,17.6,30.08,WSW,248,0.0,1.6,75,0.00,,,0.00,WUHU216HW,2013-04-24 08:51:00,
2013-04-24 03:56:00,24.5,17.6,30.08,SW,225,0.7,2.9,75,0.00,,,0.00,WUHU216HW,2013-04-24 08:56:00,
2013-04-24 04:01:00,24.5,17.6,30.08,SW,225,0.0,2.9,75,0.00,,,0.00,WUHU216HW,2013-04-24 09:01:00,
2013-04-24 04:06:00,24.3,17.5,30.08,SW,225,0.0,1.1,75,0.00,,,0.00,WUHU216HW,2013-04-24 09:06:00,
2013-04-24 04:11:00,24.3,17.5,30.08,SW,225,0.2,0.7,75,0.00,,,0.00,WUHU216HW,2013-04-24 09:11:00,
2013-04-24 04:16:00,24.1,17.3,30.08,SW,225,0.0,0.7,75,0.00,,,0.00,WUHU216HW,2013-04-24 09:16:00,
2013-04-24 04:21:00,24.1,17.3,30.08,SW,225,0.0,0.7,75,0.00,,,0.00,WUHU216HW,2013-04-24 09:21:00,
2013-04-24 04:26:00,23.9,17.1,30.08,SW,225,0.0,0.7,75,0.00,,,0.00,WUHU216HW,2013-04-24 09:26:00,
2013-04-24 04:31:00,23.9,17.1,30.08,SW,225,0.4,0.4,75,0.00,,,0.00,WUHU216HW,2013-04-24 09:31:00,
2013-04-24 04:36:00,23.8,17.0,30.09,SW,225,0.0,0.7,75,0.00,,,0.00,WUHU216HW,2013-04-24 09:36:00,
2013-04-24 04:41:00,23.9,17.1,30.09,SW,225,0.0,0.7,75,0.00,,,0.00,WUHU216HW,2013-04-24 09:41:00,
2013-04-24 04:46:00,23.8,17.0,30.09,SW,225,0.0,0.9,75,0.00,,,0.00,WUHU216HW,2013-04-24 09:46:00,
2013-04-24 04:51:00,23.8,17.0,30.09,SW,225,0.0,0.9,75,0.00,,,0.00,WUHU216HW,2013-04-24 09:51:00,
2013-04-24 04:56:00,23.8,17.0,30.09,WSW,248,0.0,0.7,75,0.00,,,0.00,WUHU216HW,2013-04-24 09:56:00,
2013-04-24 05:01:00,23.8,17.0,30.09,WSW,248,0.0,0.7,75,0.00,,,0.00,WUHU216HW,2013-04-24 10:01:00,
2013-04-24 05:06:00,23.9,17.1,30.09,WSW,248,0.7,1.6,75,0.00,,,0.00,WUHU216HW,2013-04-24 10:06:00,
2013-04-24 05:11:00,24.1,17.3,30.09,WSW,248,0.0,1.6,75,0.00,,,0.00,WUHU216HW,2013-04-24 10:11:00,
2013-04-24 05:16:00,24.1,17.3,30.09,SW,225,0.4,2.0,75,0.00,,,0.00,WUHU216HW,2013-04-24 10:16:00,
2013-04-24 05:21:00,23.9,17.1,30.09,SW,225,0.0,2.0,75,0.00,,,0.00,WUHU216HW,2013-04-24 10:21:00,
2013-04-24 05:26:00,23.6,16.8,30.09,SW,225,0.0,0.4,75,0.00,,,0.00,WUHU216HW,2013-04-24 10:26:00,
2013-04-24 05:31:00,23.0,16.6,30.09,SW,225,0.0,0.0,76,0.00,,,0.00,WUHU216HW,2013-04-24 10:31:00,
2013-04-24 05:36:00,22.7,16.2,30.09,SW,225,0.0,0.2,76,0.00,,,0.00,WUHU216HW,2013-04-24 10:36:00,
2013-04-24 05:41:00,22.9,16.4,30.09,SW,225,0.0,0.2,76,0.00,,,0.00,WUHU216HW,2013-04-24 10:41:00,
2013-04-24 05:46:00,22.7,16.2,30.09,SW,225,0.0,0.0,76,0.00,,,0.00,WUHU216HW,2013-04-24 10:46:00,
2013-04-24 05:51:00,22.7,16.2,30.09,SW,225,0.0,0.0,76,0.00,,,0.00,WUHU216HW,2013-04-24 10:51:00,
2013-04-24 05:56:00,22.5,16.0,30.09,SW,225,0.0,0.0,76,0.00,,,0.00,WUHU216HW,2013-04-24 10:56:00,
2013-04-24 06:01:00,22.5,16.0,30.09,SW,225,0.0,0.0,76,0.00,,,0.00,WUHU216HW,2013-04-24 11:01:00,
2013-04-24 06:06:00,22.1,15.7,30.09,SW,225,0.0,0.0,76,0.00,,,0.00,WUHU216HW,2013-04-24 11:06:00,
2013-04-24 06:11:00,22.0,15.5,30.09,SW,225,0.0,0.0,76,0.00,,,0.00,WUHU216HW,2013-04-24 11:11:00,
2013-04-24 06:16:00,22.0,15.5,30.09,SW,225,0.0,0.0,76,0.00,,,0.00,WUHU216HW,2013-04-24 11:16:00,
2013-04-24 06:21:00,21.8,15.3,30.09,SW,225,0.0,0.0,76,0.00,,,0.00,WUHU216HW,2013-04-24 11:21:00,
2013-04-24 06:26:00,22.1,15.7,30.09,West,270,1.1,1.1,76,0.00,,,0.00,WUHU216HW,2013-04-24 11:26:00,
2013-04-24 06:31:00,22.5,15.8,30.09,WNW,293,0.4,1.1,75,0.00,,,0.00,WUHU216HW,2013-04-24 11:31:00,
2013-04-24 06:36:00,23.0,16.3,30.10,WNW,293,0.4,1.8,75,0.00,,,0.00,WUHU216HW,2013-04-24 11:36:00,
2013-04-24 06:41:00,23.4,16.3,30.10,WNW,293,0.0,1.8,74,0.00,,,0.00,WUHU216HW,2013-04-24 11:41:00,
2013-04-24 06:46:00,23.9,16.5,30.10,SW,225,0.7,1.1,73,0.00,,,0.00,WUHU216HW,2013-04-24 11:46:00,
2013-04-24 06:51:00,24.8,17.0,30.10,WSW,248,0.0,1.1,72,0.00,,,0.00,WUHU216HW,2013-04-24 11:51:00,
2013-04-24 06:56:00,25.6,17.7,30.10,WSW,248,0.2,0.9,72,0.00,,,0.00,WUHU216HW,2013-04-24 11:56:00,
2013-04-24 07:01:00,26.8,19.0,30.10,West,270,0.0,1.1,72,0.00,,,0.00,WUHU216HW,2013-04-24 12:01:00,
2013-04-24 07:06:00,28.3,20.7,30.10,SW,225,0.0,1.1,73,0.00,,,0.00,WUHU216HW,2013-04-24 12:06:00,
2013-04-24 07:11:00,29.9,22.2,30.10,SW,225,0.4,2.2,73,0.00,,,0.00,WUHU216HW,2013-04-24 12:11:00,
2013-04-24 07:16:00,31.3,23.7,30.10,SW,225,1.8,2.2,73,0.00,,,0.00,WUHU216HW,2013-04-24 12:16:00,
2013-04-24 07:21:00,32.4,25.4,30.10,SW,225,0.2,2.0,75,0.00,,,0.00,WUHU216HW,2013-04-24 12:21:00,
2013-04-24 07:26:00,33.7,26.2,30.10,SW,225,0.2,2.0,74,0.00,,,0.00,WUHU216HW,2013-04-24 12:26:00,
2013-04-24 07:31:00,34.6,26.7,30.10,SSW,203,1.1,2.5,73,0.00,,,0.00,WUHU216HW,2013-04-24 12:31:00,
2013-04-24 07:36:00,35.5,27.6,30.10,SW,225,1.8,2.5,73,0.00,,,0.00,WUHU216HW,2013-04-24 12:36:00,
2013-04-24 07:41:00,36.4,28.5,30.10,SSW,203,3.4,3.4,73,0.00,,,0.00,WUHU216HW,2013-04-24 12:41:00,
2013-04-24 07:46:00,36.4,28.2,30.11,SW,225,1.8,4.0,72,0.00,,,0.00,WUHU216HW,2013-04-24 12:46:00,
2013-04-24 07:51:00,35.1,26.3,30.11,West,270,2.5,4.9,70,0.00,,,0.00,WUHU216HW,2013-04-24 12:51:00,
2013-04-24 07:56:00,34.0,25.2,30.10,WNW,293,1.6,5.8,70,0.00,,,0.00,WUHU216HW,2013-04-24 12:56:00,
2013-04-24 08:01:00,33.5,25.0,30.11,SW,225,0.7,5.8,71,0.00,,,0.00,WUHU216HW,2013-04-24 13:01:00,
2013-04-24 08:06:00,33.5,25.0,30.11,SSW,203,2.0,4.0,71,0.00,,,0.00,WUHU216HW,2013-04-24 13:06:00,
2013-04-24 08:11:00,33.7,25.2,30.10,WNW,293,1.8,4.0,71,0.00,,,0.00,WUHU216HW,2013-04-24 13:11:00,
2013-04-24 08:16:00,33.8,25.4,30.11,SW,225,2.0,3.4,71,0.00,,,0.00,WUHU216HW,2013-04-24 13:16:00,
2013-04-24 08:51:00,36.2,27.4,30.10,West,270,1.6,1.6,70,0.00,,,0.00,WUHU216HW,2013-04-24 13:51:00,
2013-04-24 08:56:00,36.7,27.6,30.11,WSW,248,4.0,4.0,69,0.00,,,0.00,WUHU216HW,2013-04-24 13:56:00,
2013-04-24 09:01:00,37.1,27.9,30.11,WNW,293,1.3,4.0,69,0.00,,,0.00,WUHU216HW,2013-04-24 14:01:00,
2013-04-24 09:06:00,37.4,28.3,30.11,West,270,1.1,4.0,69,0.00,,,0.00,WUHU216HW,2013-04-24 14:06:00,
2013-04-24 09:11:00,38.5,28.4,30.10,NW,315,1.3,4.3,67,0.00,,,0.00,WUHU216HW,2013-04-24 14:11:00,
2013-04-24 09:16:00,39.6,28.7,30.10,SW,225,3.4,4.5,65,0.00,,,0.00,WUHU216HW,2013-04-24 14:16:00,
2013-04-24 09:21:00,41.0,29.0,30.10,WNW,293,2.5,5.1,62,0.00,,,0.00,WUHU216HW,2013-04-24 14:21:00,
2013-04-24 09:26:00,41.2,28.8,30.10,WNW,293,1.3,5.1,61,0.00,,,0.00,WUHU216HW,2013-04-24 14:26:00,
2013-04-24 09:31:00,41.8,29.7,30.10,West,270,4.9,4.9,62,0.00,,,0.00,WUHU216HW,2013-04-24 14:31:00,
2013-04-24 09:36:00,43.4,31.2,30.09,WNW,293,1.1,4.9,62,0.00,,,0.00,WUHU216HW,2013-04-24 14:36:00,
2013-04-24 09:41:00,43.9,30.5,30.09,SW,225,2.0,4.3,59,0.00,,,0.00,WUHU216HW,2013-04-24 14:41:00,
2013-04-24 09:46:00,44.5,29.7,30.09,WNW,293,2.0,3.8,56,0.00,,,0.00,WUHU216HW,2013-04-24 14:46:00,
2013-04-24 09:51:00,45.0,30.7,30.09,SSW,203,1.6,3.8,57,0.00,,,0.00,WUHU216HW,2013-04-24 14:51:00,
2013-04-24 09:56:00,47.2,32.7,30.09,SSE,158,3.6,3.6,57,0.00,,,0.00,WUHU216HW,2013-04-24 14:56:00,
2013-04-24 10:01:00,48.4,32.1,30.09,West,270,1.8,4.0,53,0.00,,,0.00,WUHU216HW,2013-04-24 15:01:00,
2013-04-24 10:09:00,49.1,32.7,30.09,SW,225,2.0,5.4,53,0.00,,,0.00,WUHU216HW,2013-04-24 15:09:00,
2013-04-24 10:14:00,50.2,31.2,30.09,WSW,248,5.6,6.3,48,0.00,,,0.00,WUHU216HW,2013-04-24 15:14:00,
2013-04-24 10:19:00,50.4,30.3,30.09,SW,225,4.0,8.7,46,0.00,,,0.00,WUHU216HW,2013-04-24 15:19:00,
2013-04-24 10:24:00,50.4,30.9,30.09,West,270,5.8,8.7,47,0.00,,,0.00,WUHU216HW,2013-04-24 15:24:00,
2013-04-24 10:29:00,50.8,30.6,30.09,SSW,203,5.8,10.5,46,0.00,,,0.00,WUHU216HW,2013-04-24 15:29:00,
2013-04-24 10:34:00,50.8,30.1,30.09,South,180,2.7,10.5,45,0.00,,,0.00,WUHU216HW,2013-04-24 15:34:00,
2013-04-24 10:39:00,50.9,30.2,30.08,SSW,203,5.4,8.3,45,0.00,,,0.00,WUHU216HW,2013-04-24 15:39:00,
2013-04-24 10:44:00,50.9,30.8,30.09,SSW,203,3.8,8.5,46,0.00,,,0.00,WUHU216HW,2013-04-24 15:44:00,
2013-04-24 10:49:00,51.5,30.7,30.08,SW,225,4.5,8.5,45,0.00,,,0.00,WUHU216HW,2013-04-24 15:49:00,
2013-04-24 10:54:00,52.2,32.0,30.09,West,270,1.6,8.5,46,0.00,,,0.00,WUHU216HW,2013-04-24 15:54:00,
2013-04-24 10:59:00,52.9,32.6,30.08,West,270,2.9,6.0,46,0.00,,,0.00,WUHU216HW,2013-04-24 15:59:00,
2013-04-24 11:04:00,53.1,32.2,30.08,NNW,338,4.3,11.6,45,0.00,,,0.00,WUHU216HW,2013-04-24 16:04:00,
2013-04-24 11:09:00,53.5,32.0,30.09,West,270,4.5,11.6,44,0.00,,,0.00,WUHU216HW,2013-04-24 16:09:00,
2013-04-24 11:14:00,53.1,31.1,30.08,SW,225,4.9,6.9,43,0.00,,,0.00,WUHU216HW,2013-04-24 16:14:00,
2013-04-24 11:19:00,52.9,31.5,30.08,SSW,203,2.5,7.2,44,0.00,,,0.00,WUHU216HW,2013-04-24 16:19:00,
2013-04-24 11:24:00,52.9,31.5,30.08,West,270,2.5,7.2,44,0.00,,,0.00,WUHU216HW,2013-04-24 16:24:00,
2013-04-24 11:29:00,50.8,29.5,30.08,WSW,248,4.0,6.9,44,0.00,,,0.00,WUHU216HW,2013-04-24 16:29:00,
2013-04-24 11:34:00,51.7,30.9,30.08,West,270,2.9,8.9,45,0.00,,,0.00,WUHU216HW,2013-04-24 16:34:00,
2013-04-24 11:39:00,52.9,32.6,30.08,WNW,293,4.3,8.9,46,0.00,,,0.00,WUHU216HW,2013-04-24 16:39:00,
2013-04-24 11:44:00,53.5,32.0,30.08,SW,225,6.5,10.3,44,0.00,,,0.00,WUHU216HW,2013-04-24 16:44:00,
2013-04-24 11:49:00,53.6,32.1,30.08,South,180,3.1,10.3,44,0.00,,,0.00,WUHU216HW,2013-04-24 16:49:00,
2013-04-24 11:54:00,53.6,31.6,30.08,SSW,203,6.3,9.4,43,0.00,,,0.00,WUHU216HW,2013-04-24 16:54:00,
2013-04-24 11:59:00,53.6,32.1,30.08,South,180,3.4,12.5,44,0.00,,,0.00,WUHU216HW,2013-04-24 16:59:00,
2013-04-24 12:04:00,54.0,30.8,30.07,North,0,4.0,12.5,41,0.00,,,0.00,WUHU216HW,2013-04-24 17:04:00,
2013-04-24 12:09:00,54.2,30.3,30.07,SSW,203,5.4,8.1,40,0.00,,,0.00,WUHU216HW,2013-04-24 17:09:00,
2013-04-24 12:14:00,54.0,30.8,30.06,SSW,203,7.2,8.5,41,0.00,,,0.00,WUHU216HW,2013-04-24 17:14:00,
2013-04-24 12:19:00,53.6,30.4,30.06,North,0,4.0,10.5,41,0.00,,,0.00,WUHU216HW,2013-04-24 17:19:00,
2013-04-24 12:24:00,53.8,31.1,30.06,SSE,158,5.4,10.5,42,0.00,,,0.00,WUHU216HW,2013-04-24 17:24:00,
2013-04-24 12:29:00,54.4,31.1,30.06,SW,225,3.4,11.4,41,0.00,,,0.00,WUHU216HW,2013-04-24 17:29:00,
2013-04-24 12:34:00,54.2,30.3,30.05,NW,315,3.1,12.8,40,0.00,,,0.00,WUHU216HW,2013-04-24 17:34:00,
2013-04-24 12:39:00,54.5,31.2,30.05,WSW,248,1.8,12.8,41,0.00,,,0.00,WUHU216HW,2013-04-24 17:39:00,
2013-04-24 12:44:00,55.3,30.6,30.05,NW,315,2.9,9.6,39,0.00,,,0.00,WUHU216HW,2013-04-24 17:44:00,
2013-04-24 12:49:00,56.0,32.0,30.05,South,180,6.3,10.1,40,0.00,,,0.00,WUHU216HW,2013-04-24 17:49:00,
2013-04-24 12:54:00,55.8,30.4,30.04,WNW,293,6.3,10.7,38,0.00,,,0.00,WUHU216HW,2013-04-24 17:54:00,
2013-04-24 12:59:00,55.8,30.4,30.04,SSW,203,5.4,10.7,38,0.00,,,0.00,WUHU216HW,2013-04-24 17:59:00,
2013-04-24 13:04:00,55.8,29.0,30.04,South,180,7.8,10.5,36,0.00,,,0.00,WUHU216HW,2013-04-24 18:04:00,
2013-04-24 13:09:00,55.3,29.3,30.04,WNW,293,3.6,10.5,37,0.00,,,0.00,WUHU216HW,2013-04-24 18:09:00,
2013-04-24 13:14:00,55.4,30.1,30.04,West,270,2.0,9.2,38,0.00,,,0.00,WUHU216HW,2013-04-24 18:14:00,
2013-04-24 13:19:00,55.8,31.9,30.04,WSW,248,2.9,7.6,40,0.00,,,0.00,WUHU216HW,2013-04-24 18:19:00,
2013-04-24 13:24:00,56.2,30.1,30.04,SW,225,6.0,9.4,37,0.00,,,0.00,WUHU216HW,2013-04-24 18:24:00,
2013-04-24 13:29:00,55.8,29.0,30.04,South,180,5.4,10.3,36,0.00,,,0.00,WUHU216HW,2013-04-24 18:29:00,
2013-04-24 14:30:00,58.0,28.9,30.02,SSE,158,4.0,4.0,33,0.00,,,0.00,WUHU216HW,2013-04-24 19:30:00,
2013-04-24 14:35:00,58.0,28.9,30.01,SSW,203,4.0,12.1,33,0.00,,,0.00,WUHU216HW,2013-04-24 19:35:00,
2013-04-24 14:40:00,58.0,28.9,30.01,West,270,5.6,12.1,33,0.00,,,0.00,WUHU216HW,2013-04-24 19:40:00,
2013-04-24 14:45:00,58.1,28.4,30.01,WNW,293,3.1,11.9,32,0.00,,,0.00,WUHU216HW,2013-04-24 19:45:00,
2013-04-24 14:50:00,58.3,29.2,30.01,WNW,293,3.8,11.9,33,0.00,,,0.00,WUHU216HW,2013-04-24 19:50:00,
2013-04-24 14:55:00,58.7,28.1,30.01,SSW,203,6.3,12.8,31,0.00,,,0.00,WUHU216HW,2013-04-24 19:55:00,
2013-04-24 15:00:00,58.7,28.1,30.01,West,270,4.0,12.8,31,0.00,,,0.00,WUHU216HW,2013-04-24 20:00:00,
2013-04-24 15:05:00,58.7,28.1,30.01,SSW,203,4.3,11.2,31,0.00,,,0.00,WUHU216HW,2013-04-24 20:05:00,
2013-04-24 15:10:00,58.7,28.1,30.01,SW,225,5.4,11.9,31,0.00,,,0.00,WUHU216HW,2013-04-24 20:10:00,
2013-04-24 15:15:00,59.2,26.9,30.00,SSW,203,3.4,11.9,29,0.00,,,0.00,WUHU216HW,2013-04-24 20:15:00,
2013-04-24 15:20:00,59.4,27.0,30.00,SSW,203,8.5,11.9,29,0.00,,,0.00,WUHU216HW,2013-04-24 20:20:00,
2013-04-24 15:25:00,59.4,27.0,30.00,SSW,203,9.6,11.9,29,0.00,,,0.00,WUHU216HW,2013-04-24 20:25:00,
2013-04-24 15:30:00,59.4,28.0,30.00,South,180,5.4,10.7,30,0.00,,,0.00,WUHU216HW,2013-04-24 20:30:00,
2013-04-24 15:35:00,59.4,27.0,30.00,West,270,4.5,9.6,29,0.00,,,0.00,WUHU216HW,2013-04-24 20:35:00,
2013-04-24 15:40:00,59.8,26.4,29.99,SSW,203,6.7,9.6,28,0.00,,,0.00,WUHU216HW,2013-04-24 20:40:00,
2013-04-24 16:00:00,59.9,26.6,29.99,West,270,6.3,6.3,28,0.00,,,0.00,WUHU216HW,2013-04-24 21:00:00,
2013-04-24 16:05:00,59.4,27.0,29.98,WNW,293,5.8,10.1,29,0.00,,,0.00,WUHU216HW,2013-04-24 21:05:00,
2013-04-24 16:10:00,60.1,27.6,29.98,West,270,6.3,10.1,29,0.00,,,0.00,WUHU216HW,2013-04-24 21:10:00,
2013-04-24 16:15:00,60.7,28.1,29.97,SW,225,9.8,11.6,29,0.00,,,0.00,WUHU216HW,2013-04-24 21:15:00,
2013-04-24 16:21:00,60.8,28.2,29.98,SE,135,4.0,11.6,29,0.00,,,0.00,WUHU216HW,2013-04-24 21:21:00,
2013-04-24 16:26:00,59.4,27.0,29.97,WNW,293,13.2,13.2,29,0.00,,,0.00,WUHU216HW,2013-04-24 21:26:00,
2013-04-24 16:31:00,59.2,26.9,29.97,West,270,4.5,13.2,29,0.00,,,0.00,WUHU216HW,2013-04-24 21:31:00,
2013-04-24 16:36:00,59.2,26.9,29.97,West,270,7.6,13.2,29,0.00,,,0.00,WUHU216HW,2013-04-24 21:36:00,
2013-04-24 16:41:00,59.9,27.5,29.97,WNW,293,7.6,11.4,29,0.00,,,0.00,WUHU216HW,2013-04-24 21:41:00,
2013-04-24 16:46:00,60.5,27.0,29.97,SW,225,3.4,11.4,28,0.00,,,0.00,WUHU216HW,2013-04-24 21:46:00,
2013-04-24 16:51:00,60.3,28.7,29.97,NW,315,3.1,11.4,30,0.00,,,0.00,WUHU216HW,2013-04-24 21:51:00,
2013-04-24 16:56:00,60.8,29.2,29.97,West,270,5.1,8.3,30,0.00,,,0.00,WUHU216HW,2013-04-24 21:56:00,
2013-04-24 17:01:00,60.1,29.4,29.97,SW,225,4.0,9.6,31,0.00,,,0.00,WUHU216HW,2013-04-24 22:01:00,
2013-04-24 17:06:00,60.5,27.9,29.97,SE,135,7.6,9.6,29,0.00,,,0.00,WUHU216HW,2013-04-24 22:06:00,
2013-04-24 17:11:00,60.1,28.6,29.97,SW,225,1.8,9.2,30,0.00,,,0.00,WUHU216HW,2013-04-24 22:11:00,
2013-04-24 17:16:00,60.1,28.6,29.96,West,270,7.4,8.3,30,0.00,,,0.00,WUHU216HW,2013-04-24 22:16:00,
2013-04-24 17:21:00,59.9,27.5,29.96,WSW,248,5.4,8.1,29,0.00,,,0.00,WUHU216HW,2013-04-24 22:21:00,
2013-04-24 17:26:00,59.4,28.0,29.97,WNW,293,4.0,8.1,30,0.00,,,0.00,WUHU216HW,2013-04-24 22:26:00,
2013-04-24 17:31:00,58.7,28.1,29.97,South,180,4.9,8.9,31,0.00,,,0.00,WUHU216HW,2013-04-24 22:31:00,
2013-04-24 17:36:00,57.4,27.0,29.96,NNE,23,3.1,11.4,31,0.00,,,0.00,WUHU216HW,2013-04-24 22:36:00,
2013-04-24 17:41:00,57.8,28.0,29.96,WNW,293,4.3,11.4,32,0.00,,,0.00,WUHU216HW,2013-04-24 22:41:00,
2013-04-24 17:46:00,58.0,28.2,29.97,WNW,293,5.1,8.7,32,0.00,,,0.00,WUHU216HW,2013-04-24 22:46:00,
2013-04-24 17:51:00,57.8,28.0,29.97,WNW,293,6.7,9.4,32,0.00,,,0.00,WUHU216HW,2013-04-24 22:51:00,
2013-04-24 17:56:00,58.0,28.2,29.96,NW,315,6.3,12.1,32,0.00,,,0.00,WUHU216HW,2013-04-24 22:56:00,
2013-04-24 18:01:00,57.8,28.0,29.97,NNW,338,6.9,12.1,32,0.00,,,0.00,WUHU216HW,2013-04-24 23:01:00,
2013-04-24 18:06:00,57.6,28.5,29.97,WNW,293,2.9,8.3,33,0.00,,,0.00,WUHU216HW,2013-04-24 23:06:00,
2013-04-24 18:11:00,57.6,28.5,29.97,WNW,293,5.1,8.3,33,0.00,,,0.00,WUHU216HW,2013-04-24 23:11:00,
2013-04-24 18:16:00,57.4,29.1,29.97,NW,315,4.5,7.6,34,0.00,,,0.00,WUHU216HW,2013-04-24 23:16:00,
2013-04-24 18:21:00,57.2,29.6,29.98,WNW,293,10.5,10.5,35,0.00,,,0.00,WUHU216HW,2013-04-24 23:21:00,
2013-04-24 18:26:00,56.7,31.2,29.98,WSW,248,8.5,12.3,38,0.00,,,0.00,WUHU216HW,2013-04-24 23:26:00,
2013-04-24 18:31:00,56.3,32.3,29.98,WNW,293,5.4,12.3,40,0.00,,,0.00,WUHU216HW,2013-04-24 23:31:00,
2013-04-24 18:36:00,56.2,32.7,29.98,West,270,3.8,8.9,41,0.00,,,0.00,WUHU216HW,2013-04-24 23:36:00,
2013-04-24 18:41:00,55.8,32.4,29.98,NNE,23,3.4,8.7,41,0.00,,,0.00,WUHU216HW,2013-04-24 23:41:00,
2013-04-24 18:46:00,55.3,32.5,29.98,NW,315,3.4,6.9,42,0.00,,,0.00,WUHU216HW,2013-04-24 23:46:00,
2013-04-24 19:01:00,54.2,33.1,29.99,WNW,293,6.0,6.0,45,0.00,,,0.00,WUHU216HW,2013-04-25 00:01:00,
2013-04-24 19:06:00,53.8,33.4,30.01,WNW,293,6.9,11.2,46,0.00,,,0.00,WUHU216HW,2013-04-25 00:06:00,
2013-04-24 19:11:00,52.7,36.5,30.03,West,270,18.1,18.1,54,0.00,,,0.00,WUHU216HW,2013-04-25 00:11:00,
2013-04-24 19:16:00,50.0,38.4,30.04,NNW,338,10.5,18.1,64,0.00,,,0.00,WUHU216HW,2013-04-25 00:16:00,
2013-04-24 19:21:00,47.9,38.2,30.05,WNW,293,6.9,13.9,69,0.01,,,0.01,WUHU216HW,2013-04-25 00:21:00,
2013-04-24 19:26:00,46.6,37.8,30.04,NNW,338,2.7,13.4,71,0.02,,,0.02,WUHU216HW,2013-04-25 00:26:00,
2013-04-24 19:31:00,46.6,37.5,30.04,WNW,293,5.4,9.8,70,0.02,,,0.02,WUHU216HW,2013-04-25 00:31:00,
2013-04-24 19:36:00,46.8,37.6,30.04,WNW,293,6.3,7.8,70,0.02,,,0.02,WUHU216HW,2013-04-25 00:36:00,
2013-04-24 19:41:00,47.2,37.9,30.04,WSW,248,2.5,7.8,70,0.02,,,0.02,WUHU216HW,2013-04-25 00:41:00,
2013-04-24 19:46:00,47.2,38.3,30.04,North,0,1.1,7.2,71,0.02,,,0.02,WUHU216HW,2013-04-25 00:46:00,
2013-04-24 19:51:00,46.8,37.6,30.04,NW,315,3.6,5.1,70,0.02,,,0.02,WUHU216HW,2013-04-25 00:51:00,
2013-04-24 19:56:00,46.8,37.6,30.03,WNW,293,2.0,5.1,70,0.02,,,0.02,WUHU216HW,2013-04-25 00:56:00,
2013-04-24 20:01:00,47.0,37.4,30.03,NW,315,2.2,6.3,69,0.02,,,0.02,WUHU216HW,2013-04-25 01:01:00,
2013-04-24 20:06:00,47.2,37.5,30.02,WSW,248,0.7,6.3,69,0.02,,,0.02,WUHU216HW,2013-04-25 01:06:00,
2013-04-24 20:11:00,47.0,37.4,30.02,WNW,293,0.7,3.8,69,0.02,,,0.02,WUHU216HW,2013-04-25 01:11:00,
2013-04-24 20:16:00,46.6,37.0,30.03,WNW,293,1.1,2.5,69,0.02,,,0.02,WUHU216HW,2013-04-25 01:16:00,
2013-04-24 20:21:00,46.4,36.9,30.03,WNW,293,1.1,2.5,69,0.01,,,0.02,WUHU216HW,2013-04-25 01:21:00,
2013-04-24 20:26:00,46.3,36.7,30.04,WNW,293,1.8,2.5,69,0.00,,,0.02,WUHU216HW,2013-04-25 01:26:00,
2013-04-24 20:31:00,46.1,36.6,30.04,WNW,293,2.2,2.2,69,0.00,,,0.02,WUHU216HW,2013-04-25 01:31:00,
2013-04-24 20:36:00,46.1,37.3,30.04,West,270,2.2,4.0,71,0.00,,,0.02,WUHU216HW,2013-04-25 01:36:00,
2013-04-24 20:41:00,46.4,37.6,30.04,WNW,293,2.2,4.0,71,0.00,,,0.02,WUHU216HW,2013-04-25 01:41:00,
2013-04-24 20:46:00,46.4,37.3,30.05,NW,315,0.4,5.4,70,0.00,,,0.02,WUHU216HW,2013-04-25 01:46:00,
2013-04-24 20:51:00,46.3,37.1,30.05,WNW,293,2.9,5.4,70,0.00,,,0.02,WUHU216HW,2013-04-25 01:51:00,
2013-04-24 20:56:00,46.1,36.6,30.05,West,270,2.5,2.9,69,0.00,,,0.02,WUHU216HW,2013-04-25 01:56:00,
2013-04-24 21:01:00,45.9,36.4,30.06,WNW,293,3.4,5.1,69,0.00,,,0.02,WUHU216HW,2013-04-25 02:01:00,
2013-04-24 21:06:00,45.7,36.2,30.06,WNW,293,2.2,5.1,69,0.00,,,0.02,WUHU216HW,2013-04-25 02:06:00,
2013-04-24 21:11:00,45.5,36.0,30.06,WNW,293,2.0,4.7,69,0.00,,,0.02,WUHU216HW,2013-04-25 02:11:00,
2013-04-24 21:16:00,45.2,35.7,30.07,WNW,293,2.7,4.7,69,0.00,,,0.02,WUHU216HW,2013-04-25 02:16:00,
2013-04-24 21:21:00,44.6,35.5,30.08,WNW,293,1.6,4.7,70,0.00,,,0.02,WUHU216HW,2013-04-25 02:21:00,
2013-04-24 21:26:00,44.5,35.3,30.08,WNW,293,2.9,5.1,70,0.00,,,0.02,WUHU216HW,2013-04-25 02:26:00,
2013-04-24 21:31:00,44.3,35.1,30.08,North,0,2.5,5.1,70,0.00,,,0.02,WUHU216HW,2013-04-25 02:31:00,
2013-04-24 21:36:00,44.3,35.1,30.08,NNE,23,1.8,2.9,70,0.00,,,0.02,WUHU216HW,2013-04-25 02:36:00,
2013-04-24 21:41:00,44.3,35.5,30.09,NW,315,0.7,3.4,71,0.00,,,0.02,WUHU216HW,2013-04-25 02:41:00,
2013-04-24 21:46:00,44.1,35.3,30.09,NNW,338,0.9,3.4,71,0.00,,,0.02,WUHU216HW,2013-04-25 02:46:00,
2013-04-24 21:51:00,43.7,34.7,30.09,WNW,293,2.5,2.5,70,0.00,,,0.02,WUHU216HW,2013-04-25 02:51:00,
2013-04-24 21:56:00,43.6,34.8,30.09,WNW,293,2.7,2.9,71,0.00,,,0.02,WUHU216HW,2013-04-25 02:56:00,
2013-04-24 22:01:00,43.4,34.3,30.09,NNW,338,1.1,2.9,70,0.00,,,0.02,WUHU216HW,2013-04-25 03:01:00,
2013-04-24 22:06:00,43.2,34.5,30.10,North,0,3.4,3.4,71,0.00,,,0.02,WUHU216HW,2013-04-25 03:06:00,
2013-04-24 22:11:00,43.0,34.3,30.10,NW,315,1.8,3.4,71,0.00,,,0.02,WUHU216HW,2013-04-25 03:11:00,
2013-04-24 22:16:00,42.8,34.2,30.11,NW,315,1.8,2.9,71,0.00,,,0.02,WUHU216HW,2013-04-25 03:16:00,
2013-04-24 22:21:00,42.7,34.0,30.11,WNW,293,1.8,4.0,71,0.00,,,0.02,WUHU216HW,2013-04-25 03:21:00,
2013-04-24 22:26:00,42.5,33.9,30.11,WNW,293,2.9,4.0,71,0.00,,,0.02,WUHU216HW,2013-04-25 03:26:00,
2013-04-24 22:31:00,42.1,33.1,30.11,West,270,2.7,3.1,70,0.00,,,0.02,WUHU216HW,2013-04-25 03:31:00,
2013-04-24 22:36:00,42.1,33.5,30.11,WNW,293,1.6,3.4,71,0.00,,,0.02,WUHU216HW,2013-04-25 03:36:00,
2013-04-24 22:41:00,41.9,32.6,30.11,West,270,3.1,3.6,69,0.00,,,0.02,WUHU216HW,2013-04-25 03:41:00,
2013-04-24 22:46:00,41.8,32.4,30.12,WNW,293,1.6,4.5,69,0.00,,,0.02,WUHU216HW,2013-04-25 03:46:00,
2013-04-24 22:51:00,41.8,32.4,30.12,WNW,293,1.8,4.5,69,0.00,,,0.02,WUHU216HW,2013-04-25 03:51:00,
2013-04-24 22:56:00,41.6,32.2,30.12,WNW,293,1.8,3.1,69,0.00,,,0.02,WUHU216HW,2013-04-25 03:56:00,
2013-04-24 23:01:00,41.6,32.2,30.12,WNW,293,1.6,3.1,69,0.00,,,0.02,WUHU216HW,2013-04-25 04:01:00,
2013-04-24 23:07:00,41.4,32.1,30.12,NW,315,1.1,2.7,69,0.00,,,0.02,WUHU216HW,2013-04-25 04:07:00,
2013-04-24 23:12:00,41.0,31.7,30.12,WNW,293,0.0,2.5,69,0.00,,,0.02,WUHU216HW,2013-04-25 04:12:00,
2013-04-24 23:17:00,40.7,31.7,30.12,WNW,293,0.0,1.1,70,0.00,,,0.02,WUHU216HW,2013-04-25 04:17:00,
2013-04-24 23:22:00,40.3,31.3,30.12,WNW,293,0.0,0.9,70,0.00,,,0.02,WUHU216HW,2013-04-25 04:22:00,
2013-04-24 23:27:00,40.0,31.3,30.12,WNW,293,1.8,1.8,71,0.00,,,0.02,WUHU216HW,2013-04-25 04:27:00,
2013-04-24 23:32:00,40.0,31.3,30.12,WNW,293,0.0,1.8,71,0.00,,,0.02,WUHU216HW,2013-04-25 04:32:00,
2013-04-24 23:37:00,39.8,31.2,30.12,WNW,293,0.0,1.8,71,0.00,,,0.02,WUHU216HW,2013-04-25 04:37:00,
2013-04-24 23:42:00,39.2,30.6,30.12,WNW,293,0.0,0.0,71,0.00,,,0.02,WUHU216HW,2013-04-25 04:42:00,
2013-04-24 23:47:00,38.5,30.0,30.12,WNW,293,0.0,0.0,71,0.00,,,0.02,WUHU216HW,2013-04-25 04:47:00,
2013-04-24 23:52:00,38.0,29.4,30.12,WNW,293,0.9,1.1,71,0.00,,,0.02,WUHU216HW,2013-04-25 04:52:00,
2013-04-24 23:57:00,37.6,29.1,30.12,West,270,0.4,1.1,71,0.00,,,0.02,WUHU216HW,2013-04-25 04:57:00,